Tracking 20721 objects as of 2-Jun-2020
HD Live streaming from Space Station
objects crossing your sky now

FENGYUN 1C DEB

Track FENGYUN 1C DEB now!
10-day predictions


NORAD ID: 32410
Int'l Code: 1999-025CZW
Perigee: 488.6 km
Apogee: 585.8 km
Inclination: 97.8 °
Period: 95.2 minutes
Semi major axis: 6908 km
RCS: 0.0096 m2 (small)
Launch date: May 10, 1999
Source: People's Republic of China (PRC)
Launch site: Taiyaun Space Center, China (TSC)

Note: This is SATELLITE DEBRIS
aabbcc
Your satellite tracking list
Your tracking list is empty




NASA's NSSDC Master Catalog

Two Line Element Set (TLE):
1 32410U 99025CZW 20150.86423978  .00009214  00000-0  50880-3 0  9990
2 32410  97.8072  25.8109 0070355  98.3349 262.5866 15.12019150674137
Source of the keplerian elements: AFSPC